NPT15J EGFF-EGJJ

Flight info

Callsign NPT15J
Flight time 0h 32m
Altitude 16000
Route EXMOR N92 DAWLY N864 ABBEW N90 ENHEL N862 SKERY
Aircraft B737/M-SDE2E3FGHIRWXY/LB1

Departure

Time 2026-05-05 21:22
Airport Cardiff International Airport (EGFF)

Arrival

Time 2026-05-05 21:55
Airport Jersey Airport (EGJJ)
Time Latitude Longitude Altitude Speed Heading
2026-05-05 21:05 51.39910 -3.34152 222 ft 0 kts 116°
2026-05-05 21:17 51.39922 -3.34184 226 ft 4 kts 131°
2026-05-05 21:17 51.39941 -3.34209 222 ft 4 kts 169°
2026-05-05 21:18 51.39957 -3.34208 223 ft 0 kts 206°
2026-05-05 21:19 51.39957 -3.34209 223 ft 1 kts 206°
2026-05-05 21:20 51.39938 -3.34223 226 ft 5 kts 206°
2026-05-05 21:20 51.39896 -3.34257 223 ft 7 kts 207°
2026-05-05 21:20 51.39854 -3.34294 224 ft 7 kts 224°
2026-05-05 21:20 51.39862 -3.34378 224 ft 12 kts 295°
2026-05-05 21:21 51.39906 -3.34519 225 ft 16 kts 296°
2026-05-05 21:21 51.39895 -3.34677 221 ft 17 kts 201°
2026-05-05 21:21 51.39815 -3.34740 221 ft 8 kts 200°
2026-05-05 21:21 51.39782 -3.34712 222 ft 0 kts 117°
2026-05-05 21:22 51.39747 -3.34602 221 ft 43 kts 116°
2026-05-05 21:22 51.39484 -3.33762 223 ft 123 kts 116°
2026-05-05 21:22 51.39043 -3.32337 525 ft 157 kts 113°
2026-05-05 21:22 51.38549 -3.30691 1303 ft 168 kts 110°
2026-05-05 21:23 51.38079 -3.28964 2161 ft 175 kts 109°
2026-05-05 21:23 51.37464 -3.27105 2687 ft 209 kts 122°
2026-05-05 21:23 51.36403 -3.25331 3289 ft 229 kts 141°
2026-05-05 21:23 51.34985 -3.24140 4147 ft 237 kts 162°
2026-05-05 21:24 51.33368 -3.23810 5189 ft 239 kts 185°
2026-05-05 21:24 51.31703 -3.24470 5902 ft 260 kts 206°
2026-05-05 21:24 51.30142 -3.26130 6603 ft 276 kts 220°
2026-05-05 21:24 51.28828 -3.28374 7566 ft 279 kts 236°
2026-05-05 21:25 51.27693 -3.30919 8594 ft 283 kts 235°
2026-05-05 21:25 51.26481 -3.33427 9628 ft 287 kts 233°
2026-05-05 21:25 51.25017 -3.35627 10423 ft 300 kts 211°
2026-05-05 21:25 51.23005 -3.36619 10437 ft 303 kts 186°
2026-05-05 21:26 51.20911 -3.36928 10430 ft 301 kts 186°
2026-05-05 21:26 51.18817 -3.37224 10472 ft 307 kts 185°
2026-05-05 21:26 51.16603 -3.37530 10694 ft 334 kts 185°
2026-05-05 21:26 51.14204 -3.37859 11134 ft 354 kts 186°
2026-05-05 21:27 51.11720 -3.38198 11951 ft 361 kts 186°
2026-05-05 21:27 51.09200 -3.38542 12834 ft 366 kts 186°
2026-05-05 21:27 51.06692 -3.38884 13863 ft 366 kts 186°
2026-05-05 21:27 51.04975 -3.39118 14467 ft 367 kts 186°
2026-05-05 21:28 51.01925 -3.39536 15422 ft 374 kts 186°
2026-05-05 21:28 50.99352 -3.39887 15836 ft 375 kts 186°
2026-05-05 21:28 50.96802 -3.40236 15993 ft 385 kts 186°
2026-05-05 21:28 50.94101 -3.40605 16001 ft 393 kts 186°
2026-05-05 21:29 50.91380 -3.40976 15988 ft 391 kts 186°
2026-05-05 21:29 50.88677 -3.41343 15990 ft 389 kts 186°
2026-05-05 21:29 50.85981 -3.41709 15994 ft 388 kts 186°
2026-05-05 21:29 50.83287 -3.42075 15997 ft 388 kts 186°
2026-05-05 21:30 50.80597 -3.42442 15993 ft 389 kts 186°
2026-05-05 21:30 50.77904 -3.42867 15999 ft 389 kts 187°
2026-05-05 21:30 50.75207 -3.43334 15994 ft 390 kts 187°
2026-05-05 21:30 50.72511 -3.43810 15995 ft 390 kts 187°
2026-05-05 21:31 50.69813 -3.44282 15996 ft 391 kts 187°
2026-05-05 21:31 50.67106 -3.44750 16000 ft 391 kts 187°
2026-05-05 21:31 50.64395 -3.45213 15994 ft 391 kts 187°
2026-05-05 21:31 50.61689 -3.45673 15989 ft 391 kts 187°
2026-05-05 21:32 50.58983 -3.46132 15988 ft 391 kts 187°
2026-05-05 21:32 50.56275 -3.46590 15982 ft 392 kts 187°
2026-05-05 21:32 50.53555 -3.47034 15991 ft 393 kts 185°
2026-05-05 21:32 50.50851 -3.46889 15987 ft 395 kts 172°
2026-05-05 21:33 50.48185 -3.45844 15998 ft 396 kts 161°
2026-05-05 21:33 50.45687 -3.44009 15997 ft 397 kts 152°
2026-05-05 21:33 50.43255 -3.41931 15988 ft 397 kts 152°
2026-05-05 21:33 50.40824 -3.39882 15988 ft 397 kts 152°
2026-05-05 21:34 50.38379 -3.37867 15983 ft 397 kts 153°
2026-05-05 21:34 50.36751 -3.36551 15979 ft 397 kts 153°
2026-05-05 21:34 50.34291 -3.34579 15986 ft 397 kts 153°
2026-05-05 21:34 50.31831 -3.32612 15986 ft 397 kts 153°
2026-05-05 21:35 50.29366 -3.30638 15979 ft 397 kts 153°
2026-05-05 21:35 50.26903 -3.28666 15982 ft 398 kts 153°
2026-05-05 21:35 50.24440 -3.26703 15985 ft 397 kts 154°
2026-05-05 21:35 50.21876 -3.25105 15972 ft 397 kts 165°
2026-05-05 21:36 50.19191 -3.24096 15986 ft 396 kts 168°
2026-05-05 21:36 50.16505 -3.23179 15983 ft 395 kts 168°
2026-05-05 21:36 50.13814 -3.22257 15973 ft 396 kts 167°
2026-05-05 21:36 50.11122 -3.21313 15973 ft 397 kts 167°
2026-05-05 21:37 50.08425 -3.20346 15981 ft 397 kts 167°
2026-05-05 21:37 50.05763 -3.19384 15986 ft 398 kts 167°
2026-05-05 21:37 50.03028 -3.18359 15982 ft 399 kts 163°
2026-05-05 21:37 50.00498 -3.16753 15976 ft 399 kts 150°
2026-05-05 21:38 49.98191 -3.14389 15975 ft 398 kts 140°
2026-05-05 21:38 49.96188 -3.11429 15982 ft 397 kts 133°
2026-05-05 21:38 49.94270 -3.08348 15974 ft 396 kts 133°
2026-05-05 21:38 49.92357 -3.05265 15969 ft 396 kts 133°
2026-05-05 21:39 49.90447 -3.02193 15969 ft 396 kts 133°
2026-05-05 21:39 49.88530 -2.99128 15973 ft 395 kts 133°
2026-05-05 21:39 49.86616 -2.96081 15973 ft 394 kts 133°
2026-05-05 21:39 49.84699 -2.93044 15972 ft 394 kts 133°
2026-05-05 21:40 49.82784 -2.90017 15962 ft 390 kts 133°
2026-05-05 21:40 49.80912 -2.87065 15845 ft 379 kts 133°
2026-05-05 21:40 49.79066 -2.84159 15419 ft 377 kts 133°
2026-05-05 21:40 49.77233 -2.81276 14907 ft 372 kts 133°
2026-05-05 21:41 49.75429 -2.78442 14358 ft 368 kts 133°
2026-05-05 21:41 49.73638 -2.75633 13823 ft 365 kts 133°
2026-05-05 21:41 49.71865 -2.72853 13226 ft 362 kts 133°
2026-05-05 21:41 49.70104 -2.70096 12638 ft 359 kts 133°
2026-05-05 21:42 49.68380 -2.67399 12083 ft 355 kts 133°
2026-05-05 21:42 49.66650 -2.64697 11530 ft 352 kts 133°
2026-05-05 21:42 49.64935 -2.62019 10988 ft 349 kts 133°
2026-05-05 21:42 49.63240 -2.59378 10640 ft 338 kts 133°
2026-05-05 21:43 49.61643 -2.56894 10487 ft 315 kts 133°
2026-05-05 21:43 49.60146 -2.54570 10299 ft 298 kts 133°
2026-05-05 21:43 49.58702 -2.52324 10108 ft 289 kts 132°
2026-05-05 21:43 49.57312 -2.50166 9989 ft 279 kts 132°
2026-05-05 21:44 49.55957 -2.48061 9679 ft 276 kts 132°
2026-05-05 21:44 49.54608 -2.45966 9341 ft 274 kts 132°
2026-05-05 21:44 49.53266 -2.43884 9003 ft 273 kts 132°
2026-05-05 21:44 49.51934 -2.41821 8670 ft 271 kts 132°
2026-05-05 21:45 49.50629 -2.39801 8346 ft 269 kts 132°
2026-05-05 21:45 49.49312 -2.37764 8019 ft 268 kts 132°
2026-05-05 21:45 49.48001 -2.35740 7679 ft 266 kts 132°
2026-05-05 21:45 49.46698 -2.33727 7370 ft 265 kts 132°
2026-05-05 21:46 49.45397 -2.31722 7041 ft 264 kts 133°
2026-05-05 21:46 49.44103 -2.29727 6719 ft 263 kts 133°
2026-05-05 21:46 49.42811 -2.27738 6400 ft 263 kts 133°
2026-05-05 21:46 49.41521 -2.25754 6064 ft 262 kts 133°
2026-05-05 21:47 49.40239 -2.23783 5746 ft 260 kts 133°
2026-05-05 21:47 49.38959 -2.21817 5423 ft 259 kts 132°
2026-05-05 21:47 49.37691 -2.19870 5104 ft 257 kts 132°
2026-05-05 21:47 49.36428 -2.17933 4784 ft 256 kts 132°
2026-05-05 21:48 49.35173 -2.16010 4557 ft 254 kts 132°
2026-05-05 21:48 49.33953 -2.14062 4364 ft 254 kts 123°
2026-05-05 21:48 49.33296 -2.11594 4194 ft 249 kts 100°
2026-05-05 21:48 49.32914 -2.09011 4018 ft 250 kts 100°
2026-05-05 21:49 49.32534 -2.06450 3856 ft 250 kts 100°
2026-05-05 21:49 49.32155 -2.03889 3651 ft 243 kts 101°
2026-05-05 21:49 49.31422 -2.01606 3442 ft 241 kts 129°
2026-05-05 21:49 49.30293 -1.99755 3277 ft 234 kts 130°
2026-05-05 21:50 49.29164 -1.98045 3078 ft 231 kts 143°
2026-05-05 21:50 49.27751 -1.96863 2865 ft 231 kts 150°
2026-05-05 21:50 49.26320 -1.95764 2607 ft 230 kts 150°
2026-05-05 21:50 49.24840 -1.95039 2320 ft 232 kts 179°
2026-05-05 21:51 49.23350 -1.95821 2094 ft 228 kts 222°
2026-05-05 21:51 49.22597 -1.97744 2005 ft 213 kts 262°
2026-05-05 21:51 49.22454 -1.99896 1991 ft 199 kts 265°
2026-05-05 21:51 49.22278 -2.01943 2006 ft 191 kts 264°
2026-05-05 21:52 49.21938 -2.05904 1930 ft 183 kts 265°
2026-05-05 21:52 49.21781 -2.07763 1724 ft 171 kts 265°
2026-05-05 21:52 49.21639 -2.09454 1493 ft 154 kts 265°
2026-05-05 21:53 49.21510 -2.10998 1255 ft 141 kts 266°
2026-05-05 21:53 49.21385 -2.12470 1052 ft 140 kts 264°
2026-05-05 21:53 49.21249 -2.13969 906 ft 144 kts 265°
2026-05-05 21:53 49.21121 -2.15493 721 ft 141 kts 266°
2026-05-05 21:54 49.21006 -2.16926 547 ft 133 kts 265°
2026-05-05 21:54 49.20902 -2.18247 332 ft 128 kts 265°
2026-05-05 21:54 49.20802 -2.19476 285 ft 101 kts 263°
2026-05-05 21:54 49.20739 -2.20223 281 ft 57 kts 264°
2026-05-05 21:55 49.20708 -2.20622 282 ft 22 kts 257°
2026-05-05 21:55 49.20628 -2.20637 283 ft 14 kts 118°
2026-05-05 21:55 49.20615 -2.20498 283 ft 14 kts 102°
2026-05-05 21:55 49.20591 -2.20362 286 ft 13 kts 106°
2026-05-05 21:56 49.20567 -2.20229 283 ft 13 kts 104°
2026-05-05 21:56 49.20543 -2.20102 286 ft 12 kts 107°
2026-05-05 21:56 49.20516 -2.19978 288 ft 12 kts 111°
2026-05-05 21:56 49.20458 -2.19917 283 ft 6 kts 166°
2026-05-05 21:57 49.20435 -2.19869 283 ft 6 kts 91°
2026-05-05 21:57 49.20436 -2.19803 283 ft 6 kts 86°
2026-05-05 21:57 49.20440 -2.19740 283 ft 6 kts 84°
2026-05-05 21:57 49.20443 -2.19679 283 ft 6 kts 91°
2026-05-05 21:58 49.20435 -2.19619 283 ft 6 kts 103°
2026-05-05 21:58 49.20425 -2.19560 283 ft 6 kts 105°
2026-05-05 21:58 49.20417 -2.19527 287 ft 2 kts 125°
2026-05-05 21:58 49.20401 -2.19529 283 ft 2 kts 192°
2026-05-05 21:59 49.20385 -2.19534 283 ft 2 kts 194°
2026-05-05 21:59 49.20377 -2.19537 283 ft 0 kts 194°